Location: Azul
(36.7830°S, 59.8500°W)
Time: 00:50:45
(UTC-03:00)

NOAA 15 - Visible Passes

Search period start: 19 September 2024 00:00
Search period end: 29 September 2024 00:00
Orbit: 795 x 811 km, 98.6° (Epoch: 18 September)

Date Brightness Start Highest point End Pass type
(mag) Time Alt. Az. Time Alt. Az. Time Alt. Az.
19 Sep 4.5 20:26:52 10° SSE 20:32:13 70° ENE 20:37:28 10° N visible
19 Sep 7.4 22:08:36 10° SSW 22:11:17 14° WSW 22:13:58 10° W visible
20 Sep 5.0 20:01:20 10° SSE 20:06:19 39° E 20:11:12 10° NNE visible
20 Sep 6.7 21:41:34 10° SSW 21:45:46 24° WSW 21:49:56 10° WNW visible
21 Sep 5.7 19:36:14 10° SE 19:40:18 22° E 19:44:20 10° NE visible
21 Sep 5.8 21:15:10 10° S 21:20:09 41° WSW 21:25:04 10° NW visible
22 Sep 4.8 20:49:06 10° S 20:54:26 72° WSW 20:59:40 10° NNW visible
23 Sep 4.5 20:23:18 10° SSE 20:28:36 65° ENE 20:33:49 10° N visible
23 Sep 7.4 22:04:46 10° SSW 22:07:44 15° WSW 22:10:40 10° W visible
24 Sep 5.1 19:57:47 10° SSE 20:02:41 36° E 20:07:30 10° NNE visible
24 Sep 6.6 21:37:53 10° SSW 21:42:12 26° WSW 21:46:29 10° WNW visible
25 Sep 5.8 19:32:46 10° SE 19:36:40 20° E 19:40:29 10° NE visible
25 Sep 5.7 21:11:31 10° S 21:16:33 44° WSW 21:21:31 10° NW visible
26 Sep 4.7 20:45:28 10° S 20:50:49 78° WSW 20:56:04 10° NNW visible
27 Sep 4.6 20:19:42 10° SSE 20:24:59 59° ENE 20:30:09 10° N visible
27 Sep 7.3 22:00:58 10° SSW 22:04:09 16° WSW 22:07:20 10° W visible
28 Sep 5.2 19:54:15 10° SSE 19:59:02 33° E 20:03:44 10° NNE visible
28 Sep 6.5 21:34:09 10° S 21:38:36 28° WSW 21:43:00 10° NW visible
